Terminal Aerodrome Forecast
Issued by NWS

Home | Current Version | Previous Version | Text Only | Print | Product List | Glossary On
Versions: 1 2 3 4 5 6 7 8 9 10 11 12 13 14 15
000
FTUS46 KSEW 231700
TAFPAE
TAF
KPAE 231728Z 2318/2418 16009KT P6SM VCSH BKN020 OVC070
     FM240300 18011KT P6SM -RA SCT020 OVC040
     FM240900 18013KT P6SM -RA OVC015
     FM241700 19013KT P6SM -SHRA OVC015=

USA.gov is the U.S. government's official web portal to all federal, state and local government web resources and services.